Location: Nairn
(57.5833°N, 3.8667°W)
Time: 21:04:43
(UTC+00:00)

Altair - Pass Details

Date: 10 October 2022
Orbit: 1501 x 1682 km, 47.2° (Epoch: 05 December)

Event Time Altitude Azimuth Distance (km) Brightness Sun altitude
Exits shadow 03:45:32 20° 197° (SSW) 3,062 8.7 -23.4°
Maximum altitude 03:50:47 33° 151° (SSE) 2,462 8.6 -22.8°
Drops below altitude 10° 03:59:15 10° 92° (E) 3,904 10.5 -21.7°
Sets 04:02:49 0° 84° (E) 4,912 11.5 -21.3°
